sat.trackr.live / text

‹ back to catalog

STARLINK-2047

NORAD 47355 · 2021-005G

PAYLOAD ACTIVE UNKNOWN

§ Identity

Operator
Country
US
Launch date
2021-01-20
Launch site
AFETR
Launch vehicle
Mass (kg)
RCS (m²)

Purposes: comms

External: N2YO · Heavens-Above · Gunter

§ Orbital elements

Epoch: 2026-05-25T00:49:37.305120Z

Period
94.01 min
Inclination
53.1622°
Eccentricity
0.0001377
Mean motion
15.31713143 rev/d
Perigee alt
469.8 km
Apogee alt
471.6 km
Semi-major
6,848.8 km
B*
1.7413e-4
RAAN
15.9080°
Arg perigee
89.2909°
Mean anomaly
270.8250°
Rev number
29,544

§ Raw data

STARLINK-20471 47355U 21005G   26145.03445955  .00005044  00000+0  17413-3 0  99962 47355  53.1622  15.9080 0001377  89.2909 270.8250 15.31713143295440

JSON: /api/v1/satellites/47355 · /tle

For live sub-satellite position, see the globe view (requires WebGL).

§ Visibility from observer

Set your observer location to see the next 7 days of passes ≥ 10°. The values pass through the URL so the page stays shareable.

No JS? Fill the form by hand. The geolocation button needs JavaScript.